Wind_Speed
6 7 8 9 9 10 10 9 11 14 14 13 12 11 11 12 12 11 10 8 7 7 7 8 10 11 11 12 12 12 11 11 11 10 9 8 7 6 5 4 4 3 2 1 1 1 1 1 1 2 2 2 3 3 4 5 5 5 5 5 5 6 7 8 9 10 11 12 13 13 14 15 16 17 18 19 19 20 20 20 21 21 20 20 20
6 6 6 7 7 8 9 8 9 10 11 13 13 12 13 14 12 11 13 11 9 9 9 10 11 11 12 12 13 12 12 12 11 10 9 8 8 7 6 5 4 4 4 4 4 5 5 5 5 5 5 6 6 6 7 7 8 8 8 7 7 8 8 9 10 11 12 13 13 14 15 16 17 18 19 19 20 20 21 21 22 22 23 23 23
5 5 5 6 7 9 10 9 8 8 9 11 12 13 15 15 13 12 14 15 13 12 12 12 12 13 13 13 13 13 13 13 12 11 10 9 9 8 8 8 8 8 8 8 8 8 8 8 8 8 8 9 9 9 10 10 11 11 11 10 10 10 10 10 11 12 13 14 15 16 16 17 18 19 19 20 20 21 22 22 23 24 24 25 25
5 5 5 6 7 9 11 9 7 7 8 9 10 13 16 17 15 14 15 17 17 15 14 14 14 14 15 15 14 14 14 14 14 13 13 12 12 11 11 11 11 11 12 12 12 12 12 11 11 10 11 11 12 12 13 13 13 14 14 14 14 14 13 13 14 16 17 18 18 18 19 20 20 20 21 21 21 21 22 23 23 24 25 26 26
4 5 6 7 8 9 10 9 7 7 8 9 10 13 17 18 16 15 17 19 20 18 16 17 17 17 16 16 16 16 16 16 16 16 16 15 14 13 12 12 12 13 13 14 15 15 15 14 13 13 14 14 15 15 15 15 16 16 17 17 17 17 17 18 19 19 20 21 21 21 21 22 23 23 23 23 23 23 23 23 23 24 25 26 27
6 7 9 9 9 10 10 10 10 10 11 11 12 14 17 19 18 17 19 21 23 21 18 17 19 19 18 18 18 19 20 20 19 19 18 17 16 14 13 13 13 13 14 16 17 18 18 17 17 17 18 18 18 19 18 18 18 18 19 19 20 20 21 21 22 22 22 21 22 23 23 24 25 26 26 26 25 25 24 24 24 25 26 27 28
10 11 11 11 11 12 13 13 13 13 13 13 14 16 18 20 20 20 20 23 25 25 22 19 20 22 21 20 21 22 22 22 22 21 21 19 19 18 17 16 15 15 16 18 20 20 20 20 19 20 20 20 21 21 20 19 19 18 18 20 22 22 23 24 25 26 25 23 24 25 25 26 27 28 28 28 27 27 26 26 26 26 27 27 28
13 11 12 12 12 13 14 15 15 16 17 16 17 18 20 21 22 23 23 24 26 26 26 24 23 24 25 25 24 24 24 24 24 24 23 22 21 20 19 18 17 16 18 20 21 21 21 22 21 21 21 21 21 22 22 21 20 19 19 21 23 24 25 27 28 29 29 28 28 28 28 28 28 29 30 30 29 29 29 29 29 29 28 29 29
13 13 13 14 14 14 15 16 17 18 19 19 19 20 22 23 24 25 25 26 26 27 28 28 27 27 28 29 28 27 28 28 28 28 27 26 25 24 22 21 20 20 22 22 21 21 21 22 22 21 22 22 22 23 23 22 21 20 21 23 25 26 28 30 30 31 31 32 32 32 32 31 31 30 31 31 31 31 31 31 32 32 31 31 31
14 14 15 15 15 15 16 17 18 19 21 21 21 21 23 26 27 28 28 29 29 29 30 31 30 29 31 33 33 31 31 32 33 32 30 28 27 26 25 24 24 25 25 23 22 21 22 21 20 19 19 20 21 22 23 24 23 24 25 26 27 28 30 31 32 32 31 32 33 33 34 34 34 33 32 32 32 33 34 34 34 34 33 32 32
15 15 16 15 16 16 17 18 18 20 22 22 22 22 23 26 28 30 31 32 33 33 33 33 33 33 34 35 36 36 35 35 37 35 32 30 31 31 30 29 29 27 24 22 22 23 22 20 19 18 18 19 20 21 23 24 25 26 27 27 28 29 31 31 31 31 31 32 33 34 35 36 37 35 33 33 34 34 35 36 36 36 36 35 34
17 17 17 17 17 18 18 19 19 21 22 22 22 22 23 24 26 29 32 35 36 35 34 35 35 36 37 37 38 39 40 41 39 36 32 31 31 30 29 29 28 25 23 23 24 23 22 20 19 19 21 22 22 22 24 25 25 26 27 27 28 30 31 32 32 32 32 32 33 36 37 37 37 35 34 35 35 36 36 36 37 37 38 37 37
18 19 19 19 19 19 19 20 20 21 22 23 23 23 24 24 25 27 30 33 34 33 33 36 37 37 38 38 38 37 38 41 39 33 27 25 23 22 21 22 23 23 22 23 23 22 21 20 20 21 22 22 23 23 24 25 26 26 27 28 29 30 31 32 33 34 34 34 34 36 37 36 36 36 36 36 37 38 37 38 38 39 39 39 39
20 20 20 20 20 20 20 21 23 24 24 25 24 25 25 25 25 26 28 30 30 27 27 30 32 31 30 31 32 30 29 32 32 26 21 20 20 19 19 20 20 21 22 22 21 21 20 20 21 21 21 22 23 24 24 25 26 27 28 29 30 31 32 33 34 34 34 34 35 35 35 35 36 37 37 38 39 39 40 40 40 41 41 41 41
21 21 21 21 22 22 23 24 25 26 26 26 26 26 27 27 27 27 28 27 25 22 21 22 24 24 23 22 23 24 24 24 23 20 19 20 19 19 19 19 19 20 20 20 20 20 20 20 21 22 22 23 24 25 25 26 27 28 29 30 31 31 32 33 33 34 35 35 35 35 35 35 37 38 39 40 40 41 41 42 42 42 43 43 42
21 21 21 22 24 25 26 27 29 29 28 28 27 27 28 29 29 28 27 26 25 24 22 21 22 22 21 21 21 22 22 22 21 20 20 19 19 18 18 18 19 19 19 19 19 20 20 21 22 23 24 24 25 25 26 26 27 28 29 30 31 32 32 33 34 35 36 35 35 35 36 37 38 39 39 40 41 42 42 43 43 43 44 44 44
21 22 22 23 25 27 29 30 31 30 29 28 28 29 30 30 30 30 29 27 26 25 22 21 21 22 22 21 22 22 21 21 20 20 20 19 19 18 18 18 18 18 19 19 20 21 22 23 24 24 25 25 26 26 27 27 28 29 30 31 31 33 34 34 35 36 35 35 35 36 37 37 38 39 39 40 41 42 43 43 44 45 46 46 46
24 23 23 23 23 24 27 31 33 33 31 30 30 31 31 31 30 29 28 26 25 24 22 21 21 22 22 22 22 21 20 20 19 19 19 20 20 20 19 19 19 19 20 21 22 23 24 25 26 27 27 27 28 28 28 28 29 30 31 31 32 34 34 35 35 35 35 35 36 37 37 38 39 39 40 41 42 42 43 44 44 45 46 47 47
26 24 23 22 22 22 24 28 32 34 33 32 32 31 29 29 29 28 26 25 25 24 23 21 21 22 22 22 23 22 21 20 19 20 20 20 21 21 21 20 21 21 22 22 23 24 25 26 27 28 28 28 28 28 29 29 29 30 31 32 33 34 34 35 35 36 36 37 38 38 39 40 40 41 42 42 43 43 44 44 45 46 47 46 46
27 26 25 24 23 23 25 26 27 29 30 32 33 33 31 28 27 25 24 24 24 24 24 23 22 22 22 22 22 22 21 21 21 21 21 22 22 21 21 22 22 22 23 24 25 26 27 28 28 28 28 27 27 27 28 29 29 30 31 32 33 34 35 36 36 37 38 39 40 40 40 41 42 42 43 43 44 44 44 45 45 46 46 46 45
30 29 28 27 26 26 26 27 26 26 27 30 32 34 35 33 29 27 25 25 25 25 25 25 24 23 22 22 22 22 22 23 23 23 24 23 23 23 23 23 23 24 25 26 28 28 29 30 30 30 29 29 29 29 29 30 31 32 33 34 35 36 37 37 37 38 39 40 40 40 40 41 42 43 44 44 44 44 44 45 45 45 46 46 46
34 34 33 33 31 30 28 28 27 27 27 27 27 30 33 36 37 36 33 31 30 30 29 29 28 26 24 23 23 24 25 25 25 25 26 25 25 25 25 25 25 26 28 29 30 32 32 32 32 32 31 31 31 31 32 32 33 34 35 37 37 38 38 38 39 39 39 39 39 40 41 43 44 44 44 44 44 44 44 45 45 45 46 46 47
39 39 38 37 36 34 32 31 31 30 29 28 27 27 30 34 38 39 38 36 35 34 33 32 31 31 30 28 26 26 27 27 27 27 26 26 26 26 27 28 29 30 31 32 33 34 34 34 34 34 34 34 33 33 33 34 35 37 37 38 38 38 38 38 38 37 38 39 40 42 43 43 44 43 43 43 43 44 44 44 45 46 46 47 47
42 42 42 41 40 39 38 36 35 34 33 32 30 30 31 32 35 37 39 38 37 36 36 36 35 35 35 33 30 29 29 29 28 27 27 27 28 29 29 30 31 32 33 34 35 35 35 34 34 34 35 35 34 34 35 36 37 38 38 38 37 36 36 35 35 36 38 40 42 42 42 42 42 42 42 43 43 43 44 44 45 45 46 47 48
46 46 45 45 44 44 43 42 40 38 37 36 34 33 33 34 36 37 39 40 39 38 38 37 37 37 36 34 32 31 31 30 29 29 29 29 30 30 31 31 32 33 34 35 36 36 35 34 34 35 35 35 36 36 36 36 37 38 38 37 35 34 33 33 35 38 40 41 41 41 40 40 41 41 41 42 42 43 44 45 45 46 46 47 48
51 51 50 50 49 48 48 47 45 43 41 39 37 36 37 39 39 40 40 40 39 38 38 38 38 37 37 35 33 31 31 32 32 31 31 32 32 31 32 32 33 34 35 36 36 35 35 34 34 35 36 37 37 36 35 36 37 38 37 34 32 31 32 35 38 39 40 39 39 39 39 39 39 40 40 41 42 43 44 45 46 46 47 47 47
52 52 52 51 51 50 49 49 48 46 44 42 39 39 39 40 40 40 41 41 41 40 39 38 37 36 36 35 34 34 35 36 34 33 33 33 33 33 33 34 35 36 36 37 37 36 35 35 35 36 37 37 35 34 34 36 37 36 33 31 30 32 35 37 38 38 37 37 37 37 37 38 39 39 40 41 42 43 44 45 46 46 46 45 44
49 50 49 49 49 49 48 48 48 47 47 45 43 42 42 41 41 40 40 41 42 41 37 33 31 31 33 34 34 34 34 34 33 33 34 34 33 34 34 35 36 37 37 38 37 36 35 35 36 37 37 34 32 32 35 36 35 32 30 30 32 35 37 37 36 35 34 34 35 35 36 38 39 40 41 41 42 42 43 44 44 44 43 42 39
47 48 47 47 47 47 46 46 46 47 48 48 47 46 45 45 44 43 42 42 42 40 35 32 31 31 30 30 29 29 28 29 30 30 31 31 32 33 34 34 35 36 36 37 36 35 35 35 36 36 34 32 32 34 35 33 30 29 30 33 35 36 35 34 32 32 32 33 34 35 36 37 38 40 41 41 41 41 40 41 41 40 38 36 32
47 47 47 46 45 45 45 45 44 45 47 49 50 48 47 46 46 46 45 43 40 37 33 31 31 31 29 27 27 28 28 29 30 30 31 31 32 32 33 33 34 34 35 35 35 34 34 34 34 34 33 33 34 34 31 29 29 30 33 34 34 33 31 30 30 30 31 32 33 35 36 37 38 39 39 39 39 38 37 36 35 33 30 27 22
48 47 47 46 45 44 44 44 44 44 45 48 50 50 49 47 46 46 45 43 40 38 35 33 33 33 31 28 27 29 30 31 31 32 32 33 33 33 33 33 33 33 34 34 33 32 32 33 33 33 34 34 32 30 28 29 31 32 32 31 29 28 27 28 29 29 30 31 33 34 36 36 37 37 36 36 35 33 31 30 28 25 22 19 17
46 46 46 46 46 45 45 44 44 44 44 45 47 49 50 49 47 46 45 45 43 40 38 36 37 37 36 32 29 29 31 32 32 31 32 33 33 33 33 32 32 32 32 32 31 31 31 31 31 31 31 30 28 28 29 30 30 29 27 26 25 25 26 27 27 28 29 31 32 33 34 34 35 35 34 33 31 28 25 23 21 19 16 16 17
41 42 43 44 44 45 45 45 44 45 45 44 44 46 48 50 48 45 44 44 45 45 43 40 38 38 36 33 30 29 31 32 32 32 32 33 33 32 30 29 29 29 29 29 29 28 27 27 27 27 26 26 27 28 29 28 26 24 23 23 23 24 25 25 25 27 28 30 31 31 32 32 33 33 31 29 26 23 21 19 17 16 15 16 16
34 35 37 38 40 42 44 44 44 44 45 45 44 43 44 46 47 47 46 44 43 43 43 40 38 38 37 34 30 29 30 31 31 32 32 31 30 28 26 26 25 25 25 24 24 24 24 24 24 24 25 25 26 25 24 22 21 20 20 21 22 22 22 23 24 26 28 29 29 29 30 31 32 31 29 25 22 19 18 16 16 16 16 16 16
31 32 32 33 34 37 40 42 43 43 43 43 44 42 41 41 42 44 47 46 42 38 36 35 34 35 34 31 29 28 29 29 29 29 28 27 26 23 22 21 21 21 20 20 20 21 22 22 23 23 23 23 21 20 19 18 18 18 19 19 20 20 21 22 24 25 26 26 26 28 29 30 31 30 28 23 20 18 16 15 16 16 17 17 18
29 30 30 30 30 31 34 37 40 41 40 41 41 41 40 40 39 37 39 42 42 39 36 34 32 31 29 26 25 25 25 26 26 25 24 23 21 20 19 19 19 18 18 19 19 20 21 21 21 20 19 18 17 16 16 16 16 16 17 17 17 18 20 21 22 23 24 24 25 27 28 30 30 30 27 23 19 17 16 16 16 17 18 18 18
24 24 26 27 27 27 29 32 35 37 38 38 39 39 39 39 38 35 33 34 34 33 31 30 30 29 27 24 23 23 23 23 23 23 22 21 20 19 19 20 19 19 20 19 19 20 20 19 17 16 15 14 14 14 15 15 14 14 14 15 16 17 19 20 21 21 22 23 24 26 28 29 30 29 27 23 20 18 17 17 16 17 18 19 19
20 20 20 23 23 23 25 28 30 33 36 37 37 38 38 38 37 35 33 32 30 28 26 24 23 23 21 20 20 22 24 25 24 23 21 20 20 20 20 20 20 20 20 19 19 18 17 15 13 12 12 13 13 13 13 12 12 12 13 14 15 16 17 18 19 20 21 22 24 26 27 29 29 29 28 24 21 19 18 17 18 18 18 19 19
18 16 16 19 20 20 22 24 26 30 34 36 35 36 36 36 37 36 34 31 29 27 25 23 22 23 23 22 24 26 26 25 24 22 21 20 20 21 21 21 20 20 19 18 17 15 13 11 11 12 12 12 12 11 10 10 10 11 12 13 14 15 16 17 18 19 20 21 23 25 27 28 29 29 28 25 22 19 18 18 19 19 19 19 19
15 13 11 13 14 15 19 22 23 26 31 34 34 34 34 34 35 35 34 32 30 28 26 25 25 26 25 25 27 29 28 24 21 20 20 21 21 21 21 20 20 19 17 15 13 12 11 11 12 12 11 10 9 8 8 9 10 10 11 11 12 13 14 15 17 18 20 21 22 24 26 27 28 28 27 26 23 20 19 19 19 19 19 19 18
14 11 8 8 9 11 15 19 21 24 28 31 31 31 30 31 32 33 34 33 32 31 30 29 28 28 27 24 21 21 21 21 20 20 21 21 21 21 21 21 20 18 15 14 13 12 12 12 12 11 9 7 7 7 8 8 9 9 9 10 11 12 13 14 16 18 20 21 22 23 25 26 27 27 27 26 24 21 19 19 18 18 17 16 15
16 13 9 3 4 9 14 17 19 22 26 28 28 27 27 26 27 28 30 31 30 30 30 29 29 28 27 24 20 17 17 19 20 20 20 21 22 22 22 21 18 15 14 13 12 12 12 12 11 9 6 6 6 7 8 8 8 8 8 9 10 11 12 13 15 17 19 20 21 22 23 25 26 26 26 25 24 22 20 18 17 16 15 14 14
17 17 16 13 8 7 11 15 17 21 24 26 25 23 23 22 21 21 23 25 26 26 27 28 29 28 25 24 22 20 19 20 20 18 19 20 22 22 21 18 15 13 12 12 11 12 12 12 9 6 5 6 7 7 7 7 7 7 7 8 9 10 11 13 15 16 18 19 20 21 22 23 25 25 25 25 24 22 20 18 16 15 14 13 13
18 17 17 17 16 14 14 15 16 18 21 21 21 20 19 18 17 18 20 21 22 21 21 22 23 23 22 23 22 21 20 21 20 19 20 21 20 19 16 14 13 12 11 11 12 12 11 8 6 6 7 7 7 7 7 6 6 6 7 7 8 9 11 13 14 15 17 18 19 20 21 22 23 25 25 24 24 23 22 19 17 15 14 13 13
18 17 16 15 15 15 15 15 15 15 16 16 16 16 16 15 15 16 18 18 18 17 16 16 16 15 15 17 18 19 21 23 22 21 20 20 18 15 14 13 12 12 11 11 12 11 9 7 7 7 8 8 8 7 6 5 6 6 6 7 8 9 11 13 14 15 16 17 18 19 20 21 23 24 24 24 24 24 23 22 20 17 15 14 13
20 18 16 14 13 13 12 12 13 13 14 15 16 16 17 16 16 17 18 17 17 16 15 15 14 13 13 14 16 18 22 24 22 20 19 18 16 14 14 13 12 11 11 11 11 9 8 8 8 8 8 8 7 6 5 6 6 6 6 7 8 9 11 13 15 16 17 17 18 19 19 20 22 23 24 24 25 25 25 24 23 20 17 15 13
19 19 17 16 14 13 12 11 11 11 13 14 16 17 17 17 17 17 16 15 15 16 15 15 14 13 13 16 19 22 24 23 21 20 18 16 15 14 13 11 10 10 11 11 10 8 8 8 8 8 8 7 6 5 6 6 5 5 6 7 9 10 12 13 15 16 17 18 19 19 20 20 21 23 24 25 25 25 25 25 24 22 19 16 13
18 17 17 16 15 14 13 12 11 11 10 10 12 14 15 14 14 13 13 13 13 13 14 15 15 16 19 22 23 23 22 20 19 18 16 15 14 13 11 10 10 11 11 11 9 7 7 7 7 7 6 5 4 5 5 5 5 5 7 8 10 11 12 14 15 16 17 18 19 20 21 21 21 22 23 24 26 26 25 25 24 23 20 16 13
22 20 17 16 14 13 12 11 10 10 8 7 8 11 12 11 10 10 11 13 15 17 18 19 21 23 24 24 22 20 19 18 17 16 14 13 13 11 10 10 11 12 11 9 7 6 6 6 6 5 4 3 3 4 4 4 5 6 7 8 10 11 13 14 15 16 17 19 19 20 21 21 22 22 22 23 25 26 26 25 24 23 21 18 14
25 24 22 20 18 16 15 13 12 11 11 11 12 14 14 13 14 15 16 19 22 23 23 23 23 22 21 20 19 18 17 16 14 13 13 12 11 10 10 11 11 11 9 7 6 6 5 5 4 4 3 3 3 3 4 4 5 7 8 9 10 11 13 14 15 16 17 19 20 20 21 22 22 22 22 23 24 25 26 26 25 23 22 19 16
21 22 22 22 21 21 20 20 20 20 20 19 20 19 18 18 19 19 19 20 20 20 19 19 18 16 16 15 15 15 13 12 12 12 11 11 10 10 10 10 10 9 8 7 6 6 5 4 4 4 3 3 3 3 4 5 6 7 8 9 10 11 12 13 15 16 17 18 19 20 21 22 22 22 23 23 23 24 25 26 25 24 22 20 18
Wind_Direction
227 231 234 238 243 251 259 258 258 264 267 257 236 213 215 232 235 221 209 205 191 180 179 175 170 165 160 156 154 154 153 152 151 151 152 150 150 148 145 146 146 150 157 166 188 215 239 249 262 278 285 291 289 285 284 285 287 291 295 301 306 307 308 309 310 311 314 316 316 318 319 321 322 322 322 320 319 318 317 317 317 317 316 313 310
231 235 239 250 261 272 280 277 264 260 257 246 227 208 212 226 230 218 210 209 203 199 198 191 185 181 176 173 172 171 172 171 169 170 172 174 177 182 187 195 206 219 234 251 262 269 274 276 277 276 276 278 280 280 282 285 287 287 288 288 290 290 290 293 299 303 307 311 314 316 318 319 321 321 321 319 316 313 311 310 311 311 311 312 311
228 238 250 264 276 287 292 292 282 268 252 238 222 208 210 221 226 218 214 216 215 215 215 209 204 199 194 191 190 188 189 188 187 187 189 194 201 207 214 221 228 234 241 249 256 262 266 270 274 274 275 276 276 278 279 283 286 286 286 287 286 287 289 293 298 302 306 309 312 313 315 317 318 319 319 317 314 311 308 306 305 304 305 305 305
240 253 267 277 284 291 291 288 284 270 252 235 219 211 212 218 222 220 219 221 220 222 227 229 226 220 215 212 209 208 207 205 204 204 203 206 211 216 223 229 236 241 245 248 251 254 257 260 264 268 273 275 274 274 275 277 281 284 285 286 286 288 292 298 302 303 305 306 307 308 310 311 313 315 315 315 313 310 308 306 304 303 302 302 301
254 271 284 288 287 289 286 283 281 272 260 242 222 214 214 218 222 222 223 225 224 226 233 241 242 239 234 231 227 224 222 220 218 217 217 218 220 224 232 240 248 256 260 262 260 260 259 260 263 267 272 274 273 273 272 272 275 279 282 283 285 288 293 298 301 304 305 304 304 305 307 309 310 311 313 313 312 311 309 308 306 305 304 303 302
256 276 282 281 281 282 281 277 275 271 265 250 230 219 218 220 225 225 225 227 229 230 233 241 246 245 243 242 239 234 231 229 228 229 231 232 232 236 241 248 256 264 271 275 276 274 272 270 270 273 275 277 278 278 276 274 274 275 279 282 285 288 293 296 299 302 303 302 302 304 306 308 309 310 311 312 311 310 308 307 307 306 306 305 304
265 270 266 264 270 276 276 274 272 270 266 252 235 226 223 224 227 228 227 228 232 235 236 241 245 245 244 243 242 240 237 236 237 238 240 241 242 245 248 252 258 264 271 275 277 278 278 276 275 275 278 279 280 279 277 277 277 277 281 285 289 292 295 298 300 302 304 303 302 303 304 305 307 309 310 310 309 308 306 306 306 306 306 305 304
267 253 248 254 263 269 271 271 271 270 267 256 242 233 229 229 230 231 231 232 234 237 240 242 245 246 246 246 245 246 245 243 241 240 241 241 243 246 250 255 259 268 277 279 278 278 279 280 279 277 277 278 278 279 277 275 274 276 281 286 290 294 297 299 301 302 303 304 303 302 302 304 306 308 309 309 308 308 307 307 306 306 305 303 302
263 245 244 253 258 261 264 266 268 269 266 259 249 239 233 232 233 234 235 235 236 239 242 243 244 247 248 247 248 250 252 252 249 245 243 245 245 247 251 255 260 272 280 278 276 277 280 282 283 280 278 279 282 285 285 281 278 279 283 287 290 293 295 296 298 300 302 303 303 303 303 304 305 307 308 308 308 308 308 308 307 307 307 306 304
266 255 253 254 252 252 256 260 264 265 264 259 253 244 236 232 233 235 236 237 238 240 242 243 244 246 248 248 249 249 252 255 254 250 248 250 252 253 254 254 260 273 276 269 266 272 275 277 279 280 281 283 285 285 285 284 284 285 287 288 289 290 291 293 295 298 300 301 302 303 303 304 305 307 309 308 307 308 308 307 307 306 306 306 305
268 262 259 255 248 245 247 252 256 260 262 261 257 250 241 235 233 233 235 237 238 240 243 246 247 248 248 248 249 251 252 253 253 253 254 257 258 259 259 257 260 266 266 260 262 268 269 270 275 279 281 283 283 282 282 283 285 287 289 289 289 290 291 293 296 298 299 300 300 301 302 303 306 309 308 306 305 305 305 305 305 305 304 304 304
270 266 262 258 253 248 245 245 248 252 255 258 258 255 249 242 237 235 236 238 239 240 243 247 250 252 252 252 253 254 253 252 254 258 261 262 260 259 257 255 253 254 255 258 262 265 265 267 271 274 276 277 277 279 281 283 284 286 288 289 289 290 292 294 296 297 299 300 300 301 303 306 307 308 307 305 304 303 303 303 303 303 303 303 302
269 268 266 266 264 260 252 245 244 246 249 253 257 257 253 248 244 242 243 244 245 244 245 249 253 257 260 260 260 258 254 252 255 259 257 255 254 251 248 246 246 249 255 258 260 260 261 266 268 270 272 274 276 279 280 282 283 284 286 288 290 291 293 293 295 296 298 299 300 302 305 307 307 306 306 304 304 303 303 303 302 302 301 301 301
266 268 269 271 271 267 262 253 246 245 246 248 252 255 255 253 250 250 251 252 254 252 249 251 255 258 261 261 258 257 254 253 256 254 245 242 244 243 244 246 248 252 255 256 257 259 263 267 270 272 274 277 280 283 283 283 284 285 287 291 292 293 294 295 297 298 300 301 303 305 306 306 305 304 304 303 303 303 302 302 302 301 301 300 300
264 264 266 268 269 268 267 260 250 247 247 248 250 252 255 255 253 253 254 255 259 261 256 254 255 257 259 257 252 251 252 252 251 246 239 239 241 242 245 249 252 254 255 258 262 265 269 272 274 277 279 281 283 284 285 286 286 287 290 292 293 294 295 296 297 298 299 302 304 305 304 303 302 302 302 302 302 301 301 301 301 300 299 299 299
260 261 263 265 266 266 265 260 251 247 246 247 248 250 252 253 253 253 254 254 257 260 259 256 254 252 253 252 248 247 248 248 246 245 244 244 246 248 251 253 255 259 262 267 271 274 276 279 280 282 283 284 285 286 287 288 289 290 291 292 292 293 293 293 294 295 298 301 302 301 300 300 299 300 300 301 301 301 301 300 300 300 299 299 298
257 259 260 262 263 264 264 260 253 248 246 247 248 249 250 252 252 251 252 253 253 255 254 251 249 247 245 245 244 244 244 245 245 247 248 251 253 255 256 258 261 265 270 274 277 279 282 283 285 286 287 287 287 287 287 287 287 287 288 288 289 289 290 291 293 295 298 299 299 298 297 297 298 298 299 299 299 300 300 300 300 300 299 299 299
261 258 256 256 257 259 260 260 255 248 245 247 249 249 248 248 248 247 247 247 248 249 247 243 241 241 242 243 244 246 247 248 248 250 251 253 256 258 261 264 268 271 275 277 279 281 283 284 285 286 287 288 289 289 288 287 285 285 285 286 287 288 290 292 294 295 297 296 296 296 296 296 297 298 299 300 300 300 300 300 301 301 300 300 300
263 259 253 250 250 250 253 257 257 251 247 248 249 248 247 244 242 241 240 240 241 243 243 241 239 239 242 245 247 250 252 254 254 255 256 257 259 262 265 269 272 274 276 278 280 281 283 284 285 286 288 289 289 289 289 288 287 287 287 288 289 291 293 294 295 296 296 295 296 297 298 299 300 301 301 301 302 302 302 302 302 302 302 302 301
265 262 257 251 250 250 249 251 255 257 257 257 253 250 249 247 244 242 241 242 243 243 243 241 240 240 241 243 246 249 252 255 257 259 260 261 263 265 268 270 272 274 276 278 280 282 284 285 286 287 289 290 290 291 291 291 292 292 293 294 295 296 296 296 296 296 297 298 299 300 301 301 301 301 302 302 302 303 303 303 303 303 302 302 301
266 266 263 258 256 255 252 250 251 253 256 258 257 254 252 251 249 248 248 250 253 253 250 246 243 241 241 243 245 247 250 253 257 259 261 262 264 266 268 271 272 275 278 281 284 286 288 289 289 290 291 292 293 293 293 294 295 296 296 297 296 296 296 296 297 298 299 300 300 300 300 300 301 301 302 303 303 303 303 302 302 301 301 301 301
264 264 263 262 261 259 257 254 252 250 252 254 256 256 254 252 251 251 251 252 254 257 257 255 250 246 242 241 242 245 247 249 251 254 258 261 264 267 269 272 275 278 282 284 287 289 291 291 290 290 291 292 292 293 293 294 296 296 297 296 296 297 297 297 298 299 299 299 299 299 300 301 301 302 302 302 302 301 301 301 300 300 300 299 299
263 262 261 260 260 260 260 260 258 255 254 254 254 255 255 254 252 250 248 248 251 254 256 257 255 252 248 247 245 244 244 246 248 251 255 259 263 267 270 273 276 278 281 283 286 289 290 290 290 290 291 292 292 292 294 295 296 297 296 296 296 296 297 297 297 297 298 298 299 300 300 300 301 300 300 300 300 299 299 299 298 298 298 297 297
262 262 262 261 260 260 262 263 262 260 258 256 255 254 254 254 252 249 246 246 249 251 253 254 255 255 253 251 247 244 244 246 249 252 256 259 262 265 268 270 273 275 278 281 284 287 289 289 289 289 290 291 291 292 294 296 296 296 295 295 295 295 295 295 295 296 298 299 299 299 299 299 299 299 298 298 298 298 297 296 296 295 295 294 294
259 259 260 260 261 262 263 263 262 261 259 257 255 254 253 251 250 247 246 246 248 250 253 254 254 254 252 249 246 245 246 248 251 254 257 259 261 262 265 267 270 273 276 279 282 286 287 287 287 288 289 289 290 292 293 294 294 295 295 295 294 292 292 294 297 298 298 298 298 298 298 298 298 298 297 297 297 297 296 295 295 294 294 293 293
258 258 258 258 258 259 260 260 260 259 256 254 253 253 252 249 247 245 245 245 247 248 250 251 252 251 249 246 247 249 250 250 253 256 258 259 261 263 265 268 270 273 275 278 282 284 285 285 287 288 289 289 290 290 290 291 293 295 296 294 291 291 294 297 299 299 298 297 297 297 297 297 297 297 297 297 297 297 297 296 296 295 295 295 295
260 259 259 258 257 256 254 255 255 255 253 250 248 248 248 248 247 245 242 240 241 243 246 248 249 250 250 250 251 253 254 254 256 258 260 260 262 264 267 268 271 273 275 278 280 282 283 284 286 288 290 290 289 288 289 292 295 296 295 293 293 295 298 298 298 297 297 297 297 297 297 298 298 298 298 299 299 299 299 298 298 298 298 298 299
263 261 259 258 258 256 254 251 249 248 248 247 245 244 244 245 246 244 239 236 235 237 241 245 247 248 250 253 255 257 258 259 259 260 262 263 264 265 267 269 271 273 275 277 279 280 282 283 285 288 289 288 285 287 292 295 295 294 294 295 296 297 297 296 296 296 296 297 298 299 299 300 301 301 301 302 302 303 302 301 300 300 301 302 303
265 263 261 259 258 256 255 252 248 245 243 242 243 243 243 243 244 245 244 242 241 240 240 243 248 251 252 254 257 261 263 264 264 265 265 265 265 266 267 269 271 273 275 276 277 279 280 282 284 285 284 282 284 289 293 293 291 291 294 296 296 295 295 294 295 296 298 299 300 301 301 303 304 305 306 306 306 305 304 302 301 301 302 304 307
263 262 261 260 258 256 254 253 250 246 242 240 239 240 240 240 242 245 247 250 252 250 248 249 256 260 260 258 259 263 267 269 269 269 269 269 269 270 271 271 272 273 274 275 276 277 278 279 280 280 280 282 286 289 290 289 289 291 293 294 294 293 293 294 296 299 301 302 302 303 305 307 308 309 308 307 306 305 304 302 301 302 304 307 310
263 261 259 258 257 254 252 250 249 247 244 241 239 238 238 238 239 243 248 250 252 253 252 251 254 258 257 254 255 259 265 268 268 268 269 271 272 274 274 273 271 270 271 273 274 275 275 275 276 277 279 282 285 286 286 287 289 290 291 291 290 290 292 296 299 301 302 303 305 307 309 310 311 310 310 309 308 307 304 301 301 303 306 309 310
265 262 258 256 254 252 250 247 245 244 243 242 240 239 238 237 236 239 242 245 247 247 245 244 246 250 250 249 250 255 261 265 267 269 272 274 276 277 276 273 270 268 268 270 271 272 273 273 274 276 278 281 282 283 284 285 287 287 287 287 288 292 296 299 301 303 304 306 309 310 312 313 315 315 315 313 311 309 305 302 302 303 304 305 309
272 267 262 257 253 250 248 246 243 240 239 239 239 239 239 239 237 236 237 239 240 239 238 237 239 241 242 242 245 251 257 261 266 270 274 278 280 279 276 273 270 268 267 268 269 270 271 272 274 275 276 278 279 280 281 282 282 282 283 287 291 295 298 301 304 306 308 309 311 313 316 319 321 321 320 318 314 310 307 304 302 300 300 303 311
279 274 268 262 255 250 246 244 242 239 237 235 236 237 239 240 240 240 239 239 235 230 227 226 226 229 233 236 241 248 255 259 263 268 273 277 279 279 277 273 269 266 264 264 265 266 267 269 270 271 272 273 275 276 277 277 278 281 285 290 293 296 300 305 307 308 309 311 314 319 323 325 326 327 326 323 317 313 309 305 302 300 300 305 312
280 276 271 265 258 251 245 242 240 238 236 234 233 234 236 238 240 241 242 244 241 232 225 222 221 223 228 233 238 246 253 258 262 268 272 276 279 280 277 271 265 260 259 258 260 262 264 265 266 267 268 270 271 272 273 275 279 284 288 292 296 301 305 307 307 308 310 314 319 325 328 330 332 334 332 326 319 315 311 305 302 302 302 306 312
281 275 269 264 259 251 243 239 237 235 234 233 232 230 230 234 237 238 240 244 246 245 244 242 237 230 227 228 232 241 248 254 261 267 271 274 278 275 267 260 257 256 257 257 259 262 263 264 263 263 265 266 267 270 274 278 282 285 289 295 301 305 306 306 308 311 314 319 325 331 333 335 337 337 336 330 323 317 313 307 304 305 307 310 314
290 279 267 261 258 250 240 234 232 231 230 230 229 228 227 229 232 234 236 238 240 242 244 241 231 223 219 221 228 239 248 253 260 266 269 270 271 265 258 255 255 256 256 258 262 265 266 263 261 259 261 265 269 272 275 277 281 287 294 301 305 305 306 309 313 316 320 325 332 335 338 339 340 340 338 334 328 323 319 313 309 308 309 311 315
298 288 270 259 257 250 236 228 226 224 223 224 224 224 225 225 227 230 233 235 233 233 233 229 222 221 223 226 234 245 250 253 259 265 267 267 264 259 256 256 255 253 255 260 267 269 265 259 257 259 264 267 267 268 270 275 284 293 298 302 304 306 309 314 318 322 327 331 334 338 341 343 343 342 340 337 331 326 323 317 312 310 311 314 318
301 293 274 259 256 248 231 221 219 218 217 218 219 219 221 223 224 227 231 234 234 232 232 233 235 238 240 244 249 250 250 254 261 262 259 259 259 255 254 255 254 253 256 263 269 267 259 256 259 262 261 259 259 261 268 280 289 294 297 301 304 308 313 319 324 328 332 334 336 339 343 345 345 343 341 339 335 329 324 318 315 315 316 318 320
316 304 282 262 257 245 225 214 212 212 211 211 213 215 217 219 222 225 229 233 236 237 238 240 243 244 245 249 252 248 243 248 256 254 250 252 252 247 247 252 255 254 257 263 265 262 260 260 258 252 247 247 252 261 274 284 286 290 296 302 306 311 317 325 331 336 337 337 338 341 344 347 346 345 344 342 339 333 328 323 322 322 322 323 322
350 335 306 267 249 232 215 206 204 204 204 204 207 210 213 217 221 224 226 230 234 237 239 241 243 244 244 244 244 238 233 235 242 245 244 245 244 241 244 250 252 252 255 259 261 262 260 252 242 234 233 239 251 265 274 278 280 287 297 304 310 317 324 332 340 342 341 340 340 342 344 347 348 347 347 345 343 338 333 330 327 326 327 330 331
25 22 15 345 233 211 203 198 195 193 193 196 201 205 208 213 219 221 224 228 231 234 236 238 239 241 242 242 242 238 232 233 238 241 239 238 237 238 241 244 247 249 253 257 258 254 243 231 223 220 225 239 253 262 266 269 276 287 300 309 317 324 332 341 347 347 344 343 343 343 344 347 349 350 350 349 347 344 339 335 332 331 334 339 340
40 44 47 53 76 136 168 177 180 181 184 189 194 198 203 211 214 213 215 220 224 228 233 235 232 230 230 233 235 234 231 232 235 234 229 227 229 230 233 237 244 249 253 252 244 233 223 217 212 213 226 239 247 253 258 265 277 292 305 315 323 331 340 349 352 350 347 346 346 346 346 348 351 353 353 353 352 350 346 342 337 333 336 340 338
44 51 57 64 75 94 116 136 153 166 176 183 189 192 196 202 204 201 206 214 218 221 227 231 228 222 217 216 219 224 226 227 226 223 219 219 221 224 230 239 246 247 243 234 224 217 214 211 210 217 227 235 241 246 253 266 281 293 306 319 330 340 349 355 356 354 351 350 350 349 350 351 353 355 356 355 356 355 353 350 345 338 335 337 336
46 53 59 66 77 90 103 119 137 154 166 175 182 185 188 190 191 194 201 208 210 212 219 225 226 221 213 210 215 222 221 216 214 215 216 216 219 225 233 239 240 236 228 220 217 216 215 213 214 219 226 232 237 244 254 266 276 288 307 325 337 347 355 358 359 357 355 355 354 354 355 355 356 357 358 358 358 359 358 357 353 346 341 341 341
50 55 61 67 76 87 100 115 131 146 158 164 169 172 175 179 185 191 197 200 201 205 213 218 219 221 223 222 219 213 206 203 206 210 211 212 217 225 229 231 230 225 219 218 220 219 215 213 214 219 225 231 237 248 259 264 272 290 313 332 343 352 358 1 1 359 358 357 357 358 359 359 358 359 359 0 1 2 1 359 357 352 348 347 348
51 55 60 67 75 86 98 111 126 141 153 160 166 170 175 181 186 190 194 198 202 207 210 211 213 216 215 209 199 192 190 194 200 204 206 209 215 219 221 223 222 218 218 221 223 218 212 212 215 220 225 231 240 253 262 267 280 301 320 334 345 353 359 1 0 359 358 359 360 1 3 4 2 0 0 2 4 4 3 1 359 356 353 352 352
56 58 61 66 72 80 90 102 114 127 139 152 165 170 173 177 181 187 194 200 203 202 202 202 200 194 187 184 183 182 186 192 197 199 201 205 209 212 216 217 216 216 219 222 218 212 211 215 217 220 225 233 246 261 270 282 301 316 326 336 343 349 355 358 358 357 358 360 1 2 4 6 5 3 2 3 5 6 5 3 1 359 358 357 356
60 63 67 70 73 78 86 95 105 112 116 125 143 154 158 160 168 178 184 184 178 174 174 177 179 177 176 178 182 186 190 193 193 193 196 200 204 208 210 209 209 214 218 216 209 206 210 214 216 219 225 233 251 270 286 304 319 327 334 338 341 345 350 352 353 355 357 359 1 2 3 4 6 6 5 4 5 6 6 5 3 2 2 2 1
61 63 68 73 78 84 90 95 100 106 109 112 122 132 138 143 148 152 155 156 157 158 162 166 170 172 175 180 184 187 187 186 186 188 193 197 200 202 200 201 206 212 213 208 202 202 204 208 214 219 225 238 259 283 303 318 329 335 337 339 341 343 344 345 347 352 356 357 358 0 2 3 4 6 7 7 6 7 7 7 5 5 5 5 5
60 63 65 68 72 78 86 92 97 102 106 111 116 122 127 131 136 139 142 146 149 153 158 164 169 173 176 178 179 179 179 180 184 188 192 194 196 196 197 200 205 209 207 205 203 202 203 211 219 224 234 251 270 290 309 321 330 334 335 338 341 341 340 340 344 348 353 355 355 357 359 1 3 4 6 7 7 7 8 8 7 6 6 7 7
Height
3123 3125 3126 3126 3127 3127 3127 3127 3127 3127 3127 3128 3129 3130 3131 3133 3135 3136 3137 3138 3138 3138 3139 3139 3139 3139 3139 3139 3139 3140 3140 3140 3141 3142 3142 3143 3144 3144 3145 3145 3146 3146 3146 3147 3147 3147 3148 3148 3148 3148 3148 3149 3149 3149 3149 3149 3149 3149 3149 3149 3149 3149 3148 3148 3148 3148 3147 3147 3147 3146 3146 3145 3145 3144 3143 3142 3142 3141 3140 3140 3139 3139 3138 3137 3137
3122 3123 3124 3124 3125 3125 3125 3125 3125 3125 3125 3126 3127 3128 3130 3132 3134 3135 3136 3137 3138 3139 3139 3140 3140 3140 3140 3140 3140 3140 3140 3140 3141 3141 3142 3143 3143 3144 3144 3144 3145 3145 3146 3146 3146 3146 3147 3147 3147 3147 3147 3148 3148 3148 3148 3148 3148 3148 3148 3148 3148 3148 3147 3147 3147 3147 3146 3146 3145 3145 3145 3144 3144 3143 3142 3141 3140 3140 3139 3138 3137 3137 3136 3135 3135
3121 3122 3122 3123 3123 3123 3123 3123 3123 3123 3124 3125 3126 3127 3129 3131 3133 3134 3135 3136 3137 3138 3139 3140 3140 3140 3140 3140 3140 3141 3141 3141 3141 3141 3142 3143 3143 3143 3144 3144 3144 3144 3144 3145 3145 3145 3145 3145 3146 3146 3146 3146 3146 3146 3146 3146 3146 3147 3147 3147 3147 3146 3146 3146 3146 3145 3145 3144 3144 3143 3143 3143 3142 3142 3141 3140 3139 3138 3137 3137 3136 3135 3134 3133 3133
3120 3121 3121 3121 3122 3122 3122 3122 3122 3122 3123 3124 3124 3126 3127 3129 3131 3132 3134 3135 3136 3137 3138 3139 3139 3140 3140 3140 3140 3140 3140 3140 3141 3141 3141 3141 3142 3142 3143 3143 3143 3143 3143 3143 3143 3144 3144 3144 3144 3144 3144 3145 3145 3144 3144 3144 3144 3144 3144 3144 3144 3144 3144 3145 3144 3144 3143 3143 3142 3141 3141 3141 3140 3140 3139 3138 3138 3137 3136 3135 3134 3133 3132 3131 3130
3119 3120 3120 3120 3121 3121 3121 3121 3121 3121 3122 3122 3123 3124 3126 3127 3129 3130 3132 3133 3134 3135 3136 3137 3138 3139 3139 3139 3139 3139 3139 3139 3139 3139 3139 3140 3140 3141 3141 3142 3142 3142 3142 3142 3142 3142 3142 3142 3142 3142 3142 3142 3142 3142 3142 3142 3142 3142 3142 3142 3142 3142 3142 3142 3142 3142 3141 3140 3140 3139 3139 3138 3138 3137 3136 3136 3135 3134 3133 3132 3132 3131 3130 3128 3127
3118 3118 3119 3119 3119 3119 3120 3120 3120 3120 3121 3121 3122 3123 3124 3126 3127 3128 3130 3131 3132 3133 3134 3135 3136 3137 3138 3138 3138 3137 3137 3137 3137 3138 3138 3138 3139 3139 3139 3139 3139 3140 3140 3140 3141 3141 3141 3141 3141 3141 3140 3140 3140 3140 3140 3140 3140 3140 3140 3140 3140 3140 3140 3140 3140 3139 3139 3138 3137 3136 3136 3135 3135 3134 3133 3133 3132 3132 3131 3130 3129 3128 3127 3126 3124
3116 3117 3117 3118 3118 3118 3118 3118 3118 3118 3119 3119 3120 3120 3122 3123 3125 3126 3127 3128 3129 3131 3132 3133 3134 3135 3135 3135 3135 3134 3135 3135 3136 3136 3137 3137 3137 3137 3137 3137 3137 3137 3137 3138 3138 3138 3138 3138 3138 3139 3138 3138 3138 3138 3138 3138 3138 3138 3138 3138 3138 3137 3137 3137 3136 3136 3136 3135 3135 3134 3133 3132 3132 3131 3130 3129 3129 3128 3128 3127 3126 3125 3124 3123 3121
3114 3115 3115 3116 3116 3116 3116 3116 3116 3116 3116 3117 3117 3118 3119 3121 3123 3124 3125 3125 3127 3128 3130 3131 3132 3132 3132 3132 3132 3132 3133 3134 3135 3135 3135 3135 3135 3135 3135 3135 3135 3135 3136 3136 3136 3136 3136 3136 3136 3136 3136 3136 3136 3135 3135 3135 3135 3135 3135 3135 3135 3135 3135 3134 3134 3133 3132 3132 3131 3131 3130 3129 3129 3128 3126 3126 3125 3124 3124 3123 3122 3122 3121 3120 3118
3112 3112 3113 3113 3113 3114 3114 3114 3114 3115 3114 3115 3115 3116 3117 3119 3120 3121 3122 3123 3124 3125 3126 3127 3128 3129 3129 3128 3129 3130 3131 3132 3133 3132 3132 3132 3132 3133 3133 3133 3133 3134 3134 3134 3134 3134 3134 3134 3134 3134 3134 3134 3134 3133 3133 3133 3133 3133 3133 3133 3133 3133 3132 3132 3131 3130 3129 3128 3127 3127 3126 3126 3125 3124 3123 3122 3121 3120 3119 3118 3118 3117 3116 3115 3114
3110 3110 3111 3111 3112 3112 3112 3112 3113 3113 3113 3113 3113 3114 3115 3116 3117 3118 3119 3119 3120 3121 3122 3122 3124 3125 3125 3125 3126 3127 3128 3129 3129 3129 3129 3130 3130 3130 3131 3131 3131 3132 3132 3132 3132 3132 3132 3132 3132 3131 3131 3131 3131 3131 3131 3131 3131 3131 3130 3130 3130 3130 3129 3128 3127 3126 3125 3124 3123 3123 3122 3121 3121 3120 3120 3119 3117 3116 3115 3114 3113 3112 3111 3111 3110
3107 3108 3108 3109 3110 3110 3110 3110 3111 3111 3111 3111 3111 3112 3112 3112 3114 3115 3115 3116 3116 3117 3118 3119 3120 3121 3121 3122 3122 3123 3124 3124 3124 3125 3126 3127 3127 3127 3128 3128 3129 3129 3129 3129 3130 3130 3130 3130 3129 3129 3129 3129 3129 3129 3128 3128 3128 3127 3127 3127 3127 3126 3125 3124 3124 3123 3122 3121 3120 3119 3118 3117 3117 3117 3116 3115 3114 3113 3111 3110 3108 3107 3106 3106 3105
3105 3106 3106 3107 3107 3108 3108 3108 3108 3108 3108 3109 3109 3109 3109 3110 3110 3111 3111 3111 3111 3113 3115 3116 3116 3117 3118 3119 3119 3120 3120 3119 3119 3121 3123 3123 3123 3123 3124 3124 3125 3126 3127 3127 3127 3127 3127 3127 3127 3127 3127 3127 3127 3126 3126 3125 3124 3124 3124 3124 3124 3123 3122 3121 3120 3119 3118 3117 3116 3115 3114 3113 3113 3112 3111 3110 3109 3108 3107 3105 3104 3103 3101 3101 3100
3103 3103 3104 3104 3105 3105 3105 3106 3106 3106 3106 3106 3106 3106 3107 3107 3107 3107 3107 3106 3107 3110 3112 3112 3113 3114 3114 3114 3115 3115 3115 3115 3116 3118 3119 3119 3120 3120 3120 3121 3122 3123 3124 3124 3125 3125 3124 3124 3124 3125 3124 3124 3124 3124 3123 3122 3121 3121 3121 3121 3120 3119 3119 3118 3116 3115 3114 3113 3112 3111 3110 3109 3108 3107 3106 3105 3104 3103 3102 3101 3099 3098 3097 3096 3095
3100 3101 3102 3102 3102 3103 3103 3103 3103 3103 3103 3103 3103 3104 3104 3104 3104 3104 3104 3103 3104 3106 3109 3109 3109 3110 3110 3110 3110 3110 3111 3111 3113 3114 3115 3116 3117 3118 3118 3119 3120 3121 3121 3121 3122 3122 3122 3122 3122 3122 3122 3122 3121 3120 3120 3119 3119 3118 3117 3117 3116 3116 3115 3114 3113 3111 3110 3109 3108 3107 3106 3106 3104 3103 3102 3101 3099 3098 3097 3095 3094 3093 3091 3090 3089
3097 3098 3098 3099 3099 3100 3100 3100 3100 3100 3100 3100 3100 3101 3101 3101 3101 3101 3100 3100 3100 3102 3105 3106 3106 3106 3107 3107 3107 3107 3108 3108 3110 3112 3113 3114 3115 3115 3116 3117 3117 3118 3118 3119 3119 3119 3119 3119 3119 3119 3119 3119 3118 3118 3117 3116 3116 3115 3114 3114 3113 3112 3111 3110 3109 3108 3107 3106 3105 3104 3103 3102 3100 3099 3097 3096 3094 3093 3092 3090 3089 3087 3086 3085 3084
3094 3094 3095 3095 3096 3096 3096 3097 3096 3096 3096 3096 3097 3098 3098 3098 3098 3098 3098 3098 3098 3099 3101 3102 3103 3103 3104 3104 3104 3105 3106 3106 3108 3109 3110 3111 3112 3113 3113 3114 3115 3115 3116 3116 3116 3116 3116 3116 3116 3116 3115 3115 3115 3114 3114 3113 3112 3112 3111 3110 3110 3109 3108 3107 3106 3104 3104 3103 3102 3101 3099 3098 3096 3095 3093 3091 3090 3088 3086 3085 3083 3082 3080 3079 3078
3091 3091 3092 3092 3092 3092 3093 3093 3093 3093 3093 3093 3094 3094 3095 3095 3095 3095 3095 3095 3096 3097 3098 3099 3100 3101 3101 3102 3102 3103 3104 3105 3105 3106 3107 3108 3109 3110 3111 3111 3112 3112 3112 3113 3113 3113 3113 3113 3112 3112 3112 3111 3111 3111 3111 3110 3110 3109 3108 3108 3107 3106 3105 3104 3102 3101 3100 3099 3098 3096 3095 3093 3092 3090 3089 3087 3085 3083 3081 3079 3078 3076 3074 3072 3071
3087 3087 3088 3088 3088 3089 3089 3089 3089 3089 3090 3090 3090 3091 3091 3091 3092 3092 3092 3093 3093 3094 3095 3096 3097 3098 3099 3099 3100 3101 3101 3102 3103 3104 3105 3106 3106 3107 3108 3108 3109 3109 3109 3109 3109 3109 3109 3109 3109 3108 3108 3108 3108 3107 3107 3107 3106 3106 3105 3104 3103 3102 3100 3099 3098 3097 3096 3094 3093 3092 3090 3089 3087 3085 3084 3082 3080 3078 3076 3074 3072 3071 3069 3067 3065
3082 3083 3083 3084 3084 3085 3085 3086 3086 3086 3086 3087 3087 3087 3087 3087 3088 3088 3089 3089 3090 3091 3092 3093 3094 3095 3096 3097 3098 3098 3099 3100 3100 3101 3102 3103 3104 3104 3105 3105 3106 3106 3106 3106 3106 3106 3106 3106 3106 3105 3105 3105 3105 3104 3103 3103 3102 3102 3101 3100 3098 3097 3096 3095 3093 3092 3090 3089 3087 3086 3084 3083 3081 3079 3077 3076 3074 3072 3070 3068 3066 3064 3062 3061 3059
3076 3077 3078 3079 3080 3080 3081 3081 3082 3082 3083 3083 3083 3083 3084 3084 3084 3085 3085 3086 3087 3088 3088 3089 3091 3092 3093 3094 3095 3096 3096 3097 3098 3099 3099 3100 3101 3101 3102 3102 3103 3103 3103 3103 3103 3103 3103 3103 3103 3102 3102 3102 3101 3101 3100 3099 3098 3097 3096 3095 3094 3093 3091 3090 3088 3087 3085 3083 3082 3080 3078 3077 3075 3073 3072 3070 3068 3066 3065 3063 3061 3058 3056 3054 3053
3071 3072 3073 3074 3075 3075 3076 3077 3077 3078 3078 3079 3079 3079 3080 3081 3081 3081 3082 3083 3084 3085 3086 3086 3087 3089 3090 3091 3092 3093 3094 3094 3095 3096 3097 3097 3098 3098 3099 3099 3100 3100 3100 3100 3100 3100 3100 3100 3099 3099 3099 3098 3097 3097 3096 3095 3094 3093 3092 3091 3090 3088 3087 3085 3084 3082 3080 3078 3077 3075 3073 3072 3070 3068 3066 3065 3063 3061 3059 3057 3055 3053 3050 3048 3046
3066 3067 3068 3069 3069 3070 3071 3071 3072 3073 3074 3074 3075 3075 3076 3076 3077 3078 3078 3080 3081 3082 3083 3084 3085 3086 3087 3088 3089 3090 3091 3092 3093 3093 3094 3094 3095 3095 3096 3096 3096 3096 3096 3096 3096 3096 3096 3096 3095 3095 3095 3094 3094 3093 3092 3092 3091 3090 3089 3087 3086 3084 3082 3081 3079 3077 3076 3074 3072 3071 3069 3067 3065 3064 3062 3060 3058 3056 3054 3052 3050 3048 3045 3043 3041
3060 3061 3062 3063 3064 3065 3066 3066 3067 3068 3069 3069 3070 3071 3071 3072 3072 3073 3074 3076 3077 3078 3079 3080 3081 3082 3083 3084 3085 3086 3088 3089 3089 3090 3091 3091 3092 3092 3092 3093 3093 3093 3093 3093 3093 3092 3092 3092 3092 3091 3091 3091 3090 3089 3089 3088 3087 3086 3085 3083 3082 3080 3078 3077 3075 3073 3071 3070 3068 3066 3065 3063 3061 3059 3057 3055 3053 3051 3049 3047 3045 3043 3040 3038 3036
3053 3054 3055 3056 3057 3058 3059 3061 3062 3063 3064 3065 3065 3066 3067 3068 3068 3069 3070 3071 3072 3073 3074 3075 3076 3078 3079 3080 3081 3083 3084 3085 3086 3086 3087 3087 3088 3089 3089 3089 3089 3089 3089 3089 3089 3089 3089 3089 3088 3088 3087 3087 3086 3086 3085 3084 3083 3082 3080 3079 3077 3076 3074 3073 3071 3069 3067 3066 3064 3062 3060 3058 3056 3054 3052 3050 3048 3046 3044 3042 3040 3038 3035 3033 3030
3046 3046 3047 3049 3050 3051 3052 3054 3055 3057 3058 3059 3060 3061 3062 3062 3063 3064 3065 3066 3067 3068 3069 3071 3072 3073 3075 3076 3077 3079 3080 3081 3082 3082 3083 3084 3084 3085 3085 3085 3086 3086 3086 3085 3085 3085 3085 3085 3085 3084 3084 3083 3083 3082 3081 3080 3079 3078 3076 3075 3073 3072 3070 3069 3067 3065 3063 3061 3060 3058 3056 3054 3052 3050 3047 3045 3043 3041 3039 3036 3034 3032 3030 3027 3024
3038 3039 3040 3041 3042 3044 3045 3046 3048 3050 3051 3053 3054 3055 3056 3056 3058 3059 3060 3061 3062 3063 3064 3066 3067 3068 3070 3071 3073 3074 3076 3077 3077 3078 3079 3080 3080 3081 3081 3081 3082 3082 3081 3081 3081 3081 3081 3081 3081 3081 3080 3079 3079 3078 3077 3076 3075 3073 3072 3071 3069 3068 3066 3065 3063 3061 3059 3057 3055 3053 3051 3049 3047 3045 3043 3041 3038 3036 3033 3030 3028 3025 3023 3020 3018
3029 3030 3032 3033 3034 3036 3037 3039 3040 3042 3044 3046 3048 3049 3050 3051 3052 3054 3054 3056 3057 3058 3059 3061 3062 3064 3065 3067 3068 3070 3071 3072 3073 3074 3075 3076 3076 3077 3077 3077 3077 3077 3077 3077 3077 3077 3077 3077 3077 3076 3076 3075 3074 3074 3073 3072 3070 3069 3068 3066 3065 3064 3062 3061 3059 3057 3055 3053 3051 3049 3047 3044 3042 3040 3038 3036 3033 3030 3027 3024 3021 3018 3016 3014 3012
3021 3022 3023 3024 3026 3027 3029 3031 3033 3035 3036 3038 3041 3043 3044 3045 3047 3048 3050 3051 3051 3053 3054 3056 3058 3059 3061 3062 3064 3065 3066 3067 3069 3070 3071 3072 3072 3073 3073 3073 3073 3073 3073 3073 3073 3073 3073 3073 3073 3072 3072 3071 3070 3069 3068 3067 3066 3065 3064 3062 3061 3060 3058 3056 3055 3053 3051 3049 3047 3045 3042 3040 3038 3035 3033 3030 3028 3025 3022 3018 3015 3012 3010 3008 3007
3013 3014 3015 3016 3018 3019 3021 3023 3025 3027 3029 3031 3033 3035 3038 3040 3041 3043 3045 3046 3046 3047 3049 3050 3052 3054 3056 3058 3059 3061 3062 3063 3064 3065 3066 3067 3068 3068 3068 3069 3069 3069 3069 3069 3069 3069 3069 3069 3068 3068 3067 3067 3066 3065 3064 3063 3062 3061 3060 3058 3057 3056 3054 3053 3051 3049 3047 3045 3043 3041 3038 3036 3034 3031 3028 3025 3022 3019 3016 3013 3010 3007 3005 3003 3002
3004 3005 3007 3008 3010 3012 3014 3015 3017 3019 3021 3023 3026 3028 3031 3033 3035 3037 3039 3041 3043 3044 3045 3046 3048 3050 3052 3054 3055 3056 3057 3059 3060 3061 3062 3062 3063 3063 3064 3064 3065 3065 3065 3065 3065 3065 3065 3065 3064 3064 3063 3063 3062 3061 3060 3059 3058 3057 3056 3055 3053 3052 3051 3049 3047 3046 3044 3042 3039 3037 3034 3032 3029 3027 3023 3020 3017 3014 3011 3008 3005 3003 3002 3000 2999
2996 2997 2998 3000 3002 3004 3006 3007 3009 3011 3013 3016 3019 3021 3024 3027 3029 3032 3034 3036 3039 3040 3042 3043 3045 3046 3048 3049 3050 3051 3052 3054 3055 3056 3057 3057 3058 3059 3059 3060 3060 3060 3061 3061 3061 3061 3061 3060 3060 3060 3060 3059 3058 3058 3057 3056 3055 3053 3052 3051 3050 3049 3047 3046 3044 3043 3041 3038 3036 3033 3031 3028 3025 3022 3019 3016 3012 3010 3007 3004 3002 3000 2999 2998 2996
2987 2988 2990 2991 2993 2995 2997 2999 3001 3003 3006 3008 3011 3014 3017 3020 3023 3025 3028 3031 3033 3035 3037 3039 3040 3042 3044 3045 3046 3046 3047 3048 3050 3051 3051 3052 3053 3054 3054 3055 3056 3056 3056 3056 3056 3056 3056 3056 3056 3056 3056 3055 3055 3054 3053 3052 3051 3050 3049 3048 3047 3046 3044 3043 3041 3040 3037 3035 3032 3030 3027 3024 3021 3018 3014 3011 3008 3005 3003 3001 2999 2998 2997 2996 2994
2978 2979 2981 2983 2984 2986 2988 2991 2993 2996 2998 3001 3004 3007 3010 3014 3017 3020 3023 3025 3027 3029 3031 3033 3035 3037 3038 3040 3041 3042 3043 3044 3045 3046 3046 3047 3048 3049 3050 3050 3051 3051 3052 3052 3052 3052 3052 3052 3052 3052 3052 3052 3051 3050 3050 3049 3048 3047 3046 3045 3044 3043 3042 3040 3039 3037 3034 3032 3029 3027 3024 3021 3017 3013 3010 3007 3004 3001 2999 2998 2997 2996 2995 2994 2993
2971 2971 2972 2974 2975 2978 2980 2983 2986 2989 2991 2995 2998 3001 3004 3008 3011 3015 3018 3019 3021 3023 3025 3026 3028 3030 3033 3035 3036 3038 3039 3040 3041 3042 3042 3043 3044 3045 3046 3046 3047 3047 3047 3048 3048 3048 3049 3049 3049 3049 3048 3048 3048 3047 3047 3046 3045 3045 3044 3043 3042 3040 3039 3038 3036 3034 3031 3029 3026 3024 3020 3017 3013 3010 3006 3003 3001 2999 2997 2996 2995 2994 2992 2992 2991
2965 2965 2965 2965 2967 2969 2972 2975 2978 2982 2985 2988 2992 2996 2999 3002 3006 3009 3012 3014 3016 3018 3020 3021 3023 3026 3028 3030 3032 3034 3036 3037 3038 3038 3039 3040 3040 3042 3042 3043 3043 3043 3044 3044 3045 3045 3045 3045 3045 3045 3045 3045 3045 3044 3044 3043 3043 3042 3041 3040 3039 3038 3037 3035 3033 3031 3029 3026 3024 3021 3018 3014 3010 3006 3003 3000 2998 2996 2995 2994 2993 2991 2990 2989 2988
2959 2958 2958 2959 2959 2961 2964 2967 2971 2975 2979 2983 2987 2991 2994 2997 3000 3004 3007 3008 3010 3013 3017 3019 3021 3023 3025 3026 3028 3031 3032 3033 3034 3035 3035 3036 3038 3039 3039 3039 3040 3040 3041 3041 3042 3042 3042 3042 3042 3042 3042 3042 3042 3041 3041 3041 3040 3039 3039 3038 3037 3036 3035 3033 3031 3029 3027 3024 3021 3018 3015 3011 3007 3004 3001 2998 2996 2994 2993 2992 2990 2989 2988 2987 2985
2953 2952 2952 2953 2953 2955 2957 2960 2964 2968 2973 2977 2982 2985 2989 2993 2996 2999 3002 3004 3006 3009 3013 3015 3017 3019 3021 3022 3025 3027 3029 3030 3031 3031 3032 3033 3035 3036 3036 3037 3037 3038 3038 3038 3039 3039 3039 3039 3039 3039 3039 3039 3039 3039 3039 3038 3038 3037 3036 3036 3035 3034 3033 3031 3029 3027 3024 3021 3018 3015 3012 3009 3005 3002 2999 2996 2994 2992 2991 2989 2988 2987 2986 2984 2982
2949 2948 2948 2948 2948 2949 2951 2954 2958 2963 2967 2972 2976 2981 2985 2989 2992 2995 2999 3001 3004 3007 3009 3011 3013 3016 3018 3019 3022 3024 3026 3027 3027 3028 3029 3031 3032 3033 3033 3034 3034 3035 3035 3036 3036 3036 3035 3036 3036 3036 3036 3036 3036 3036 3036 3036 3035 3035 3034 3034 3033 3032 3030 3029 3026 3024 3021 3018 3016 3013 3010 3006 3003 3000 2997 2994 2992 2990 2989 2987 2986 2985 2983 2982 2980
2946 2945 2944 2944 2944 2945 2947 2950 2954 2958 2962 2967 2972 2977 2981 2985 2989 2992 2996 2999 3001 3004 3007 3009 3011 3014 3016 3018 3019 3021 3022 3024 3025 3025 3026 3027 3028 3029 3030 3031 3031 3031 3032 3033 3033 3033 3033 3033 3033 3034 3034 3034 3034 3034 3034 3034 3034 3033 3033 3032 3031 3030 3028 3027 3024 3022 3019 3016 3014 3011 3008 3005 3002 2999 2996 2993 2990 2988 2987 2985 2984 2982 2980 2979 2977
2944 2942 2941 2941 2941 2942 2944 2947 2951 2954 2959 2964 2969 2974 2978 2982 2986 2990 2993 2996 2999 3002 3004 3007 3009 3011 3013 3015 3016 3017 3019 3021 3022 3023 3023 3024 3025 3026 3027 3027 3028 3029 3029 3030 3030 3030 3031 3031 3031 3031 3032 3032 3032 3032 3032 3032 3032 3032 3031 3030 3030 3028 3027 3025 3022 3020 3017 3015 3012 3009 3007 3004 3001 2998 2994 2991 2989 2987 2985 2983 2981 2979 2978 2976 2974
2944 2941 2940 2939 2939 2940 2942 2945 2949 2953 2957 2962 2967 2972 2976 2980 2983 2987 2990 2993 2996 2999 3001 3003 3006 3007 3009 3011 3013 3015 3016 3018 3019 3020 3020 3021 3022 3023 3024 3025 3026 3026 3027 3027 3028 3028 3028 3029 3029 3029 3030 3030 3030 3030 3031 3031 3031 3030 3029 3029 3028 3027 3025 3023 3020 3018 3016 3013 3011 3008 3005 3003 3000 2997 2993 2990 2988 2985 2983 2981 2979 2977 2976 2974 2972
2946 2943 2940 2938 2938 2939 2941 2945 2948 2952 2957 2962 2967 2971 2975 2979 2982 2985 2988 2991 2993 2996 2998 3000 3002 3004 3006 3008 3011 3013 3014 3015 3016 3016 3017 3018 3020 3021 3022 3023 3024 3024 3025 3025 3026 3026 3026 3026 3027 3028 3028 3029 3029 3029 3030 3030 3029 3029 3028 3027 3026 3025 3023 3021 3019 3017 3015 3012 3010 3007 3004 3002 2999 2996 2993 2990 2987 2984 2982 2980 2978 2976 2974 2972 2970
2949 2946 2944 2941 2940 2941 2943 2946 2949 2953 2958 2962 2967 2971 2975 2978 2980 2983 2986 2989 2991 2993 2995 2996 2998 3000 3003 3005 3007 3010 3011 3012 3013 3014 3015 3016 3017 3018 3020 3021 3022 3022 3023 3023 3024 3024 3024 3025 3026 3026 3027 3027 3028 3028 3028 3028 3028 3027 3027 3026 3025 3023 3022 3019 3017 3016 3014 3012 3009 3006 3004 3001 2998 2995 2992 2989 2986 2983 2981 2979 2977 2975 2973 2971 2969
2953 2951 2949 2947 2946 2946 2947 2949 2952 2956 2960 2964 2968 2971 2974 2977 2979 2981 2984 2986 2989 2991 2993 2994 2996 2998 3000 3002 3004 3006 3008 3009 3010 3012 3013 3014 3016 3017 3018 3019 3020 3021 3021 3021 3022 3022 3023 3024 3024 3025 3025 3026 3026 3027 3027 3027 3026 3026 3025 3024 3023 3022 3020 3018 3016 3015 3013 3011 3008 3006 3003 3000 2997 2995 2992 2989 2986 2983 2980 2978 2976 2974 2972 2970 2968
2957 2955 2954 2953 2952 2952 2953 2954 2956 2959 2962 2966 2969 2971 2974 2976 2978 2981 2983 2985 2987 2989 2991 2992 2994 2996 2998 2999 3001 3003 3005 3007 3008 3010 3011 3013 3014 3015 3016 3017 3018 3019 3019 3019 3020 3021 3022 3023 3023 3023 3024 3025 3025 3025 3025 3025 3025 3025 3024 3023 3022 3020 3018 3017 3015 3014 3012 3010 3008 3005 3002 2999 2997 2994 2992 2989 2986 2983 2980 2977 2975 2972 2970 2969 2967
2960 2959 2958 2957 2957 2957 2958 2959 2960 2962 2964 2967 2969 2971 2973 2975 2978 2979 2981 2983 2985 2987 2989 2991 2993 2994 2996 2998 3000 3001 3003 3005 3007 3008 3010 3011 3012 3014 3015 3015 3016 3017 3017 3018 3019 3020 3021 3021 3022 3022 3023 3023 3024 3024 3024 3024 3024 3023 3022 3021 3020 3018 3017 3015 3014 3012 3011 3009 3007 3004 3002 2999 2996 2994 2991 2988 2985 2982 2979 2976 2974 2971 2969 2968 2966
2963 2962 2962 2961 2961 2961 2962 2963 2964 2965 2967 2968 2970 2971 2973 2975 2977 2979 2980 2982 2984 2986 2988 2989 2991 2993 2995 2997 2999 3000 3002 3003 3005 3007 3008 3010 3011 3012 3013 3014 3015 3015 3016 3017 3018 3019 3019 3020 3020 3021 3022 3022 3022 3022 3023 3022 3022 3021 3020 3019 3018 3017 3015 3014 3012 3011 3009 3008 3006 3003 3001 2998 2996 2993 2990 2988 2985 2982 2979 2976 2974 2971 2969 2967 2965
2967 2966 2965 2965 2965 2965 2965 2966 2967 2968 2969 2970 2971 2972 2974 2976 2977 2979 2980 2982 2983 2985 2987 2989 2991 2992 2994 2996 2998 2999 3001 3002 3004 3005 3007 3008 3009 3010 3012 3013 3013 3014 3015 3016 3017 3018 3018 3019 3019 3020 3021 3021 3021 3021 3021 3021 3020 3019 3018 3017 3016 3015 3014 3013 3011 3010 3008 3006 3004 3002 3000 2998 2995 2993 2990 2987 2985 2982 2979 2976 2974 2971 2969 2966 2965
2971 2970 2969 2968 2968 2968 2968 2969 2969 2970 2971 2972 2973 2973 2975 2976 2978 2979 2980 2981 2983 2984 2986 2988 2990 2992 2994 2995 2997 2998 3000 3001 3003 3004 3006 3007 3008 3009 3010 3011 3012 3013 3014 3015 3016 3017 3017 3018 3018 3019 3019 3019 3019 3019 3019 3019 3018 3017 3016 3015 3014 3013 3012 3011 3010 3008 3007 3005 3003 3001 2999 2997 2995 2993 2990 2987 2985 2982 2979 2976 2974 2971 2969 2966 2964
2976 2975 2974 2973 2972 2971 2971 2971 2972 2972 2973 2973 2974 2975 2976 2978 2979 2980 2981 2982 2983 2985 2987 2989 2990 2992 2993 2995 2996 2998 2999 3001 3002 3004 3005 3006 3007 3008 3009 3011 3011 3012 3013 3014 3015 3016 3016 3017 3018 3018 3018 3018 3018 3018 3017 3017 3016 3015 3015 3014 3013 3012 3011 3010 3008 3007 3005 3004 3002 3000 2998 2996 2994 2992 2990 2987 2985 2982 2979 2977 2974 2972 2969 2967 2965
2981 2979 2978 2978 2977 2976 2976 2975 2975 2975 2976 2976 2977 2978 2979 2980 2981 2982 2983 2984 2985 2987 2988 2989 2991 2992 2994 2995 2996 2998 2999 3001 3002 3003 3004 3005 3007 3008 3009 3010 3011 3012 3013 3013 3014 3015 3015 3016 3017 3017 3017 3017 3017 3016 3016 3015 3015 3014 3013 3012 3012 3011 3010 3008 3007 3006 3004 3003 3001 3000 2998 2996 2994 2992 2990 2987 2985 2983 2980 2977 2974 2972 2970 2967 2965